Warning: Javascript must be enabled to use all the features on this page!


Page Loading - Please Wait...

* We've detected you're using a mobile device. Find our Next Generation Station Page here.
Click to hideNews Bulletins

Peak Streamflow for Idaho

Click to hide state-specific text

USGS 13037500 SNAKE RIVER NR HEISE ID

Bonneville County, Idaho
Hydrologic Unit Code 17040104
Latitude  43°36'45", Longitude 111°39'36" NAD83
Drainage area 5,752  square miles
Contributing drainage area 5,752  square miles
Gage datum 5,015.30 feet above NGVD29
Output formats
Table
Graph
Tab-separated file
peakfq (watstore) format
Reselect output format
Water
Year
Date Gage
Height
(feet)
Stream-
flow
(cfs)
1911 1911-06-16   36,0001,5
1912 1912-06-14   34,6001,5
1913 1913-06-06   33,9001,5
1914 1914-06-05 9.853 33,6005
1915 1915-06-28 6.153 17,1005
1916 1916-06-20 8.783 28,1005
1917 1917-06-20   41,0001,5
1918 1918-06-16   52,0002,5
1919 1919-06-16   17,9001,5
1920 1920-06-10 5.703 26,0005
1921 1921-06-14 6.913 34,0005
1922 1922-05-26 6.053 26,3005
1923 1923-05-27 6.233 24,5005
1924 1924-05-18 5.473 15,4005
1925 1925-05-22 7.933 25,1005
1926 1926-05-25 6.593 19,0005
1927 1927-05-19 13.903 60,0003,5
1928 1928-05-27 8.383 36,1005
1929 1929-06-18 6.083 24,3005
1930 1930-06-13 5.293 20,5005
1931 1931-05-17 3.573 12,6005
1932 1932-05-22   21,3001,5
1933 1933-06-16   25,6001,5
1934 1934-05-09 5.80 13,6005
1935 1935-06-15 7.50 21,6005
1936 1936-05-16 8.80 29,3005
1937 1937-06-23 6.75 17,9005
1938 1938-06-09 7.70 23,1005
1939 1939-06-01 7.05 19,4005
1940 1940-06-17 5.87 13,9005
1941 1941-05-28 6.08 14,5005
1942 1942-06-10 7.33 19,5005
1943 1943-06-23 10.04 36,0005
1944 1944-06-11 7.21 20,0005
1945 1945-06-26 7.70 22,5005
1946 1946-06-07 8.35 26,2005
1947 1947-06-10 8.32 25,9005
1948 1948-06-04 9.04 30,5005
1949 1949-06-13 7.45 21,0005
1950 1950-07-03 8.79 28,5005
1951 1951-05-29 9.11 30,4005
1952 1952-06-08 8.27 26,8005
1953 1953-06-20 8.18 26,0005
1954 1954-06-28 9.07 30,8005
1955 1955-06-17 6.73 18,8005
1956 1956-06-01 9.22 33,3005
1957 1957-06-10 6.62 19,4006
1958 1958-05-25 6.71 19,1006
1959 1959-06-07 5.62 14,8006
1960 1960-07-29 5.60 15,1006
1961 1961-07-04 5.23 13,1006
1962 1962-05-12 6.57 18,3006
1963 1963-06-07 8.14 25,4006
1964 1964-07-03 7.21 20,9006
1965 1965-07-11 6.99 20,2006
1966 1966-05-10 7.00 20,1006
1967 1967-07-01 7.21 20,3006
1968 1968-06-15 6.92 19,0006
1969 1969-05-21 6.24 16,1006
1970 1970-06-30 8.05 25,5006
1971 1971-07-08 7.94 24,3006
1972 1972-06-07 7.45 20,5006
1973 1973-05-25 7.07 18,9006
1974 1974-06-26 8.40 26,2006
1975 1975-07-08 7.53 21,9006
1976 1976-05-24 8.06 24,2006
1977 1977-06-09 5.59 13,1006
1978 1978-06-08 6.81 18,6006
1979 1979-05-28 6.23 16,9006
1980 1980-06-17 6.99 20,2006
1981 1981-06-12 8.05 24,8006
1982 1982-07-15 7.37 21,4006
1983 1983-06-11 7.82 23,6006
1984 1984-06-28 7.89 23,2006
1985 1985-06-09 7.62 22,6006
1986 1986-06-18 8.49 27,0006
1987 1987-06-29 5.68 14,1006
1988 1988-06-08 6.10 15,8006
1989 1989-05-23 5.94 14,7006
1990 1990-07-01 5.71 14,2006
1991 1991-06-14 7.82 23,5006
1992 1992-05-06   14,5001,6
1993 1993-06-05   19,3001,6
1994 1994-05-14 6.89 19,1006
1995 1995-07-14 7.59 22,4006
1996 1996-06-18   24,1001,6
1997 1997-06-13 11.26 43,5006
1998 1998-06-06   19,2001,6
1999 1999-06-24   20,9001,6
2000 2000-05-30 5.81 15,9006
2001 2001-07-08   13,0001,6
2002 2002-07-22   13,7001,6
2003 2003-07-24   14,9001,6
2004 2004-05-24   19,7001,6
2005 2005-06-15 5.79 15,8006
2006 2006-06-17 6.98 20,5006
2007 2007-05-25   19,0001,6
2008 2008-06-04 6.92 20,5006
2009 2009-06-27 7.83 24,5006
2010 2010-06-13 7.71 24,0006
2011 2011-06-07 8.09 26,1006
2012 2012-07-27 5.57 15,5006
2013 2013-05-20 6.61 19,6006
2014 2014-06-09 7.23 20,8006
2015 2015-05-14 6.79 18,4006
2016 2016-06-08 6.59 17,7006
2017 2017-06-14 8.36 26,3006
2018 2018-06-19 7.66 23,9006
2019 2019-04-24 6.76 19,4006
2020 2020-06-05 7.62 21,5006
?
  Peak Gage-Height Qualification Codes.
?
  Peak Streamflow Qualification Codes.